Miscellaneous Local Product
Issued by NWS Hastings, NE

Home | Current Version | Previous Version | Graphics & Text | Print | Product List | Glossary On
Versions: 1 2 3 4 5 6 7 8 9 10 11 12 13 14 15 16 17 18 19 20 21 22 23 24 25 26 27 28 29 30 31 32 33 34 35 36 37 38 39 40 41 42 43 44 45 46 47 48 49 50
896
AXUS43 KGID 260702
MISGRI

GID CWA HOURLY WEATHER ROUNDUP
NATIONAL WEATHER SERVICE HASTINGS NE
200 AM CDT MON SEP 26 2016

NOTE: "FAIR" INDICATES FEW OR NO CLOUDS BELOW 12,000 FEET WITH NO
SIGNIFICANT WEATHER AND/OR OBSTRUCTIONS TO VISIBILITY.

...SOUTH CENTRAL NEBRASKA...

CITY           SKY/WX    TMP DP  RH WIND       PRES   REMARKS
GRAND ISLAND   CLEAR     43  36  76 NW3       30.30S
HASTINGS       CLEAR     47  35  63 W3        30.31S
KEARNEY        CLEAR     43  30  61 W7        30.31S
ORD            CLEAR     39  33  79 NW5       30.29S
YORK           CLEAR     43  39  87 W6        30.29S
AURORA         CLEAR     43  40  89 W6        30.29S
LEXINGTON      CLEAR     38  32  78 W7        30.34S WCI  33
HOLDREGE       CLEAR     42  32  68 W3        30.34R
HEBRON         CLEAR     46  39  75 W3        30.30S

...NEBRASKA PANHANDLE...

CITY           SKY/WX    TMP DP  RH WIND       PRES   REMARKS
CHADRON        CLEAR     38  34  85 SW6       30.36S WCI  33
ALLIANCE       CLEAR     35  32  88 NW5       30.37F WCI  31
SCOTTSBLUFF    CLEAR     39  36  89 N3        30.39F
SIDNEY         CLEAR     37  33  85 W7        30.41F WCI  32

...WESTERN AND NORTH CENTRAL NEBRASKA...

CITY           SKY/WX    TMP DP  RH WIND       PRES   REMARKS
VALENTINE      CLEAR     38  31  76 W5        30.32R WCI  34
AINSWORTH      CLEAR     42  34  73 W6        30.31S
ONEILL         CLEAR     45  32  61 W6        30.27F
BROKEN BOW     CLEAR     36  31  82 CALM      30.32S
IMPERIAL       CLEAR     43  34  70 W3        30.39S
NORTH PLATTE   CLEAR     39  32  76 NW3       30.36S
MCCOOK         CLEAR     40  33  76 W9        30.37R WCI  34

...EASTERN NEBRASKA...

CITY           SKY/WX    TMP DP  RH WIND       PRES   REMARKS
NORFOLK        CLEAR     48  34  58 W12       30.25S
SO SIOUX CITY  PTCLDY    48  40  73 W3        30.20S
TEKAMAH        CLEAR     50  39  66 W8        30.22R
COLUMBUS       CLEAR     46  30  53 W6        30.27R
ALBION         CLEAR     42  35  74 NW3       30.28S
OMAHA EPPLEY   CLEAR     50  40  68 NW8       30.22S
OFFUTT AFB     CLEAR     50  42  72 NW8       30.21S
MILLARD        CLEAR     53  41  62 CALM      30.22F
LINCOLN        CLEAR     47  40  76 CALM      30.27R
NEBRASKA CITY  CLEAR     53  31  43 NW8       30.24R
BEATRICE       CLEAR     46  42  86 CALM      30.27R
FALLS CITY     PTCLDY    51  44  77 W8        30.23S

...NORTHERN KANSAS...

CITY           SKY/WX    TMP DP  RH WIND       PRES   REMARKS
GOODLAND       CLEAR     42  35  76 W6        30.40S
HILL CITY      CLEAR     43  35  73 W6        30.36R
HAYS           CLEAR     46  30  53 NW6       30.34S
CONCORDIA      CLEAR     49  41  74 NW9       30.30R
SALINA         CLEAR     51  45  79 NW8       30.30R
TOPEKA         CLEAR     54  45  71 NW7       30.24R HAZE



USA.gov is the U.S. government's official web portal to all federal, state and local government web resources and services.